NDBC will be participating in PACIFEX26, a partner tabletop exercise with the Tsunami Warning Centers (TWCs) scheduled for May 05 at 1600 UTC. To simulate real-time tsunami observations, the exercise may involve activating Deep Ocean Assessment and Reporting of Tsunami (DART) buoys. For more information please see PNS26-39.

Station AKXA2 - Akutan, AK Image indicating link to RSS feed of recent meteorological observations for station AKXA2


Conditions at AKXA2 as of
(9:32 am AKDT)
1732 GMT on 05/04/2026:
     

Click on the graph icon in the table below to see a time series plot of the last five days of that observation.

5-day plot - Wind Direction Wind Direction (WDIR): N ( 360 deg true )
5-day plot - Wind Speed Wind Speed (WSPD): 25.1 kts
5-day plot - Wind Gust Wind Gust (GST): 35.0 kts
5-day plot - Atmospheric Pressure Atmospheric Pressure (PRES):29.80 in
5-day plot - Air Temperature Air Temperature (ATMP): 32.7 °F
5-day plot - Dew Point Dew Point (DEWP): 30.4 °F
5-day plot - Wind Chill Wind Chill (CHILL): 18.9 °F
5-day plot - Wind Speed at 10 Meters Wind Speed at 10 meters (WSPD10M): 23.3 kts
5-day plot - Wind Speed at 20 Meters Wind Speed at 20 meters (WSPD20M): 25.3 kts
5-day plot -  Wind Speed, Wind Gust and Atmospheric Pressure Combined plot of Wind Speed, Gust, and Air Pressure
Previous observations
TIME
(AKDT)
5-day plot - Wind Direction
WDIR
 
5-day plot - Wind Speed
WSPD
kts
5-day plot - Wind Gust
GST
kts
5-day plot - Wave Height
WVHT
ft
5-day plot - Dominant Wave Period
DPD
sec
5-day plot - Average Wave Period
APD
sec
5-day plot - Mean Wave Direction
MWD
 
5-day plot - Atmospheric Pressure
PRES
in
5-day plot - Pressure Tendency
PTDY
in
5-day plot - Air Temperature
ATMP
°F
5-day plot - Water Temperature
WTMP
°F
5-day plot - Dew Point
DEWP
°F
5-day plot - Salinity
SAL
psu
5-day plot - Visibility
VIS
nmi
5-day plot - Tide (above MLLW)
TIDE
ft
2026-05-04 09:22 am N 26.0 39.0----29.79- 32.7- 30.2---
2026-05-04 09:12 am N 24.1 38.1----29.79- 32.0- 30.2---
2026-05-04 09:02 am N 21.0 33.0----29.80- 32.7- 30.4---
2026-05-04 08:52 am N 19.0 35.0----29.80- 32.5- 30.0---
2026-05-04 08:42 am N 19.0 29.9----29.81- 32.5- 30.6---
2026-05-04 08:32 am N 19.0 34.0----29.81- 32.5- 30.2---
2026-05-04 08:22 am N 22.0 34.0----29.81- 32.2- 29.8---
2026-05-04 08:12 am N 21.0 35.9----29.80- 32.4- 30.0---
2026-05-04 08:02 am N 22.0 35.0----29.80- 32.0- 30.0---
2026-05-04 07:52 am N 20.0 33.0----29.80- 32.2- 29.7---
2026-05-04 07:42 am N 22.9 34.0----29.81- 32.0- 30.0---
2026-05-04 07:32 am N 19.0 29.9----29.81- 31.8- 30.2---
2026-05-04 07:22 am N 19.0 33.0----29.82- 31.8- 30.6---
2026-05-04 07:12 am N 20.0 34.0----29.82- 31.8- 31.1---
2026-05-04 07:02 am N 21.0 34.0----29.82- 31.8- 31.3---
2026-05-04 06:52 am N 22.9 32.1----29.82- 31.6- 31.6---
2026-05-04 06:42 am N 21.0 35.9----29.82- 32.0- 31.5---
2026-05-04 06:32 am N 18.1 31.1----29.83- 32.0- 30.9---
2026-05-04 06:22 am N 19.0 31.1----29.83- 32.2- 31.1---
2026-05-04 06:12 am N 18.1 33.0----29.83- 32.2- 30.6---
2026-05-04 06:02 am N 15.0 25.1----29.83- 32.4- 29.8---
2026-05-04 05:52 am N 12.0 28.9----29.83- 31.8- 30.2---
2026-05-04 05:42 am N 12.0 35.0----29.84- 32.0- 30.2---
2026-05-04 05:32 am N 14.0 28.9----29.84- 32.5- 30.0---
2026-05-04 05:22 am N 15.0 27.0----29.84- 32.5- 29.3---
2026-05-04 05:12 am N 18.1 36.9----29.84- 32.9- 28.9---
2026-05-04 05:02 am N 19.0 28.9----29.85- 32.5- 30.0---
2026-05-04 04:52 am N 15.9 28.0----29.84- 32.9- 28.9---
2026-05-04 04:42 am N 14.0 33.0----29.85- 32.4- 29.1---
2026-05-04 04:32 am N 15.9 28.0----29.85- 32.0- 28.8---
2026-05-04 04:22 am N 17.1 28.9----29.85- 31.5- 29.7---
2026-05-04 04:12 am N 15.9 27.0----29.85- 31.6- 29.7---
2026-05-04 04:02 am N 15.0 28.0----29.86- 31.6- 29.3---
2026-05-04 03:52 am N 15.9 29.9----29.87- 32.0- 29.1---
2026-05-04 03:42 amNNE 13.0 28.9----29.87- 32.0- 28.2---
2026-05-04 03:32 am N 13.0 28.9----29.87- 32.0- 28.8---
2026-05-04 03:22 am N 13.0 32.1----29.88- 31.6- 29.7---
2026-05-04 03:12 am N 8.9 25.1----29.88- 31.8- 29.8---
2026-05-04 03:02 am NE 8.0 21.0----29.89- 31.8- 30.0---
2026-05-04 02:52 am N 9.9 35.0----29.89- 31.8- 30.2---
2026-05-04 02:42 am NW 9.9 25.1----29.89- 32.0- 30.4---
2026-05-04 02:32 am NW 6.0 18.1----29.90- 32.4- 29.5---
2026-05-04 02:22 am NW 5.1 12.0----29.91- 32.5- 29.3---
2026-05-04 02:12 am N 8.0 22.0----29.91- 32.5- 29.1---
2026-05-04 02:02 amNNW 7.0 19.0----29.91- 32.5- 29.3---
2026-05-04 01:52 amNNW 7.0 17.1----29.92- 32.5- 29.3---
2026-05-04 01:42 am N 9.9 31.1----29.91- 32.4- 29.8---
2026-05-04 01:32 am N 7.0 19.0----29.92- 32.7- 29.3---
2026-05-04 01:22 am N 11.1 20.0----29.93- 32.9- 29.5---
2026-05-04 01:12 amNNE 8.9 31.1----29.92- 33.1- 29.3---
2026-05-04 01:02 am N 9.9 32.1----29.93- 33.1- 29.7---
2026-05-04 12:52 amNNW 8.0 26.0----29.92- 33.1- 30.7---
2026-05-04 12:42 am NE 8.0 24.1----29.93- 33.4- 31.1---
2026-05-04 12:32 amNNE 8.0 22.0----29.94- 33.3- 30.6---
2026-05-04 12:22 am NW 6.0 25.1----29.93- 33.8- 30.4---
2026-05-04 12:12 am N 8.9 26.0----29.93- 33.4- 30.6---
2026-05-04 12:02 am N 5.1 14.0----29.94- 33.6- 30.9---
2026-05-03 11:52 pm N 8.0 18.1----29.95- 33.4- 30.7---
2026-05-03 11:42 pm N 8.0 22.0----29.95- 33.4- 31.3---
2026-05-03 11:32 pm N 13.0 28.9----29.95- 33.3- 31.6---
2026-05-03 11:22 pm N 13.0 22.0----29.95- 34.2- 31.8---
2026-05-03 11:12 pm NE 8.0 26.0----29.95- 34.3- 32.0---
2026-05-03 11:02 pmNNE 6.0 15.9----29.95- 34.2- 32.0---
2026-05-03 10:52 pmENE 8.0 20.0----29.95- 34.5- 32.2---
2026-05-03 10:42 pm N 11.1 20.0----29.94- 34.3- 32.2---
2026-05-03 10:32 pmNNE 8.0 22.9----29.95- 34.2- 32.4---
2026-05-03 10:22 pm N 8.0 24.1----29.95- 34.7- 32.4---
2026-05-03 10:12 pmNNE 9.9 22.9----29.95- 34.9- 32.0---
2026-05-03 10:02 pm N 11.1 21.0----29.95- 35.1- 32.2---
2026-05-03 09:52 pmNNE 9.9 22.9----29.95- 35.4- 32.5---
2026-05-03 09:42 pm N 9.9 22.0----29.96- 35.4- 32.2---
2026-05-03 09:32 pmNNE 8.9 20.0----29.96- 35.6- 32.7---
2026-05-03 09:22 pmNNE 9.9 24.1----29.96- 35.4- 32.5---
2026-05-03 09:12 pmNNE 6.0 18.1----29.96- 35.8- 32.4---
2026-05-03 09:02 pm N 7.0 15.0----29.96- 36.0- 32.5---
2026-05-03 08:52 pm NW 6.0 21.0----29.97- 36.1- 32.9---
2026-05-03 08:42 pmNNW 8.0 17.1----29.97- 36.0- 33.1---
2026-05-03 08:32 pm NW 7.0 19.0----29.97- 35.8- 33.1---
2026-05-03 08:22 pm N 7.0 22.9----29.97- 36.1- 33.8---
2026-05-03 08:12 pm NW 7.0 20.0----29.97- 36.0- 33.6---
2026-05-03 08:02 pm SW 6.0 15.0----29.97- 36.7- 34.3---
2026-05-03 07:52 pmSSW 5.1 17.1----29.98- 36.5- 33.8---
2026-05-03 07:42 pm SW 5.1 14.0----29.98- 36.5- 33.6---
2026-05-03 07:32 pmSSE 5.1 11.1----29.98- 36.3- 33.4---
2026-05-03 07:22 pmWSW 5.1 17.1----29.98- 36.3- 33.6---
2026-05-03 07:12 pmWSW 7.0 20.0----29.99- 36.1- 33.8---
2026-05-03 07:02 pmNNW 7.0 15.0----29.99- 36.7- 34.0---
2026-05-03 06:52 pm NW 6.0 18.1----29.99- 36.7- 33.8---
2026-05-03 06:42 pmWNW 6.0 17.1----29.99- 36.9- 34.2---
2026-05-03 06:32 pm N 7.0 13.0----30.00- 36.7- 34.0---
2026-05-03 06:22 pm NE 5.1 17.1----30.00- 37.2- 34.0---
2026-05-03 06:12 pm N 6.0 19.0----30.00- 37.0- 33.8---
2026-05-03 06:02 pm N 6.0 14.0----30.00- 37.4- 34.7---
2026-05-03 05:52 pm N 5.1 15.9----30.00- 37.4- 35.1---
2026-05-03 05:42 pm NE 4.1 8.9----30.01- 37.4- 35.2---
2026-05-03 05:32 pm N 8.0 14.0----30.01- 36.9- 34.5---
2026-05-03 05:22 pm N 7.0 13.0----30.01- 37.0- 34.7---
2026-05-03 05:12 pmNNE 8.0 13.0----30.01- 37.0- 34.3---
2026-05-03 05:02 pmNNE 9.9 18.1----30.01- 37.4- 34.7---
2026-05-03 04:52 pmNNE 11.1 15.9----30.01- 37.4- 34.5---
2026-05-03 04:42 pmNNE 12.0 18.1----30.01- 37.6- 34.3---
2026-05-03 04:32 pm N 12.0 20.0----30.01- 37.6- 34.7---
2026-05-03 04:22 pmNNE 12.0 20.0----30.00- 37.8- 34.2---
2026-05-03 04:12 pmNNE 11.1 18.1----30.01- 38.3- 35.1---
2026-05-03 04:02 pm N 11.1 19.0----30.01- 37.8- 35.1---
2026-05-03 03:52 pmNNE 9.9 18.1----30.02- 39.0- 36.1---
2026-05-03 03:42 pmNNE 9.9 15.9----30.02- 38.1- 35.4---
2026-05-03 03:32 pmNNE 9.9 17.1----30.02- 37.9- 35.1---
2026-05-03 03:22 pmNNE 11.1 18.1----30.02- 37.8- 34.2---
2026-05-03 03:12 pmNNE 11.1 20.0----30.02- 37.8- 34.2---
2026-05-03 03:02 pmNNE 8.9 17.1----30.03- 38.7- 35.1---
2026-05-03 02:52 pmNNE 9.9 18.1----30.02- 38.3- 34.5---
2026-05-03 02:42 pmNNE 8.0 13.0----30.03- 38.7- 35.1---
2026-05-03 02:32 pm N 8.9 15.9----30.03- 37.9- 35.1---
2026-05-03 02:22 pm N 8.9 15.0----30.03- 37.6- 34.7---
2026-05-03 02:12 pmNNE 9.9 18.1----30.03- 37.8- 34.5---
2026-05-03 02:02 pmNNE 9.9 17.1----30.03- 37.8- 34.5---
2026-05-03 01:52 pmNNE 11.1 19.0----30.04- 37.9- 34.3---
2026-05-03 01:42 pmNNE 12.0 20.0----30.04- 38.1- 34.5---
2026-05-03 01:32 pmNNE 9.9 17.1----30.03- 38.3- 34.5---
2026-05-03 01:22 pm N 9.9 17.1----30.03- 38.3- 34.7---
2026-05-03 01:12 pmNNE 9.9 17.1----30.03- 38.3- 35.4---
2026-05-03 01:02 pm N 12.0 20.0----30.03- 38.3- 35.1---
2026-05-03 12:52 pmNNE 11.1 17.1----30.03- 38.3- 35.1---
2026-05-03 12:42 pmNNE 11.1 17.1----30.03- 38.5- 35.6---
2026-05-03 12:32 pmNNE 11.1 17.1----30.03- 38.5- 35.2---
2026-05-03 12:22 pmNNE 9.9 17.1----30.03- 38.5- 34.9---
2026-05-03 12:12 pmNNE 9.9 15.0----30.03- 38.5- 34.9---
2026-05-03 12:02 pmNNE 11.1 14.0----30.03- 38.5- 34.9---
2026-05-03 11:52 am N 13.0 15.9----30.03- 37.6- 34.0---
2026-05-03 11:42 am N 12.0 17.1----30.03- 37.6- 34.7---
2026-05-03 11:32 am N 11.1 15.0----30.03- 37.2- 34.5---
2026-05-03 11:22 am N 11.1 14.0----30.03- 37.6- 34.3---
2026-05-03 11:12 am N 8.9 12.0----30.03- 38.1- 35.4---
2026-05-03 11:02 am N 11.1 15.0----30.03- 37.4- 34.7---
2026-05-03 10:52 am N 12.0 14.0----30.03- 37.2- 34.3---
2026-05-03 10:42 am N 11.1 15.0----30.03- 37.0- 34.2---
2026-05-03 10:32 am N 11.1 15.0----30.03- 36.9- 34.5---
2026-05-03 10:22 am N 11.1 15.0----30.03- 36.7- 34.5---
2026-05-03 10:12 am N 9.9 15.0----30.03- 36.5- 35.2---
2026-05-03 10:02 am N 12.0 17.1----30.03- 36.3- 35.1---
2026-05-03 09:52 am N 13.0 17.1----30.03- 36.3- 35.1---
2026-05-03 09:42 amNNE 11.1 17.1----30.02- 36.1- 35.1---
2026-05-03 09:32 amNNE 8.9 17.1----30.03- 36.0- 35.2---
2026-05-03 09:22 amNNE 13.0 19.0----30.03- 36.1- 35.4---
2026-05-03 09:12 amNNE 11.1 18.1----30.02- 35.8- 35.2---
2026-05-03 09:02 amNNE 9.9 18.1----30.02- 36.0- 35.2---
2026-05-03 08:52 amNNE 9.9 15.9----30.02- 36.1- 35.4---